| time (UTC) | temp C | wind direction | speed KPH | gust KPH | rain 1hr cm | rain 24hr cm | rain mn cm | humidity % | barometer mb |
| 20260508121544 | 8 | 0 | 0.0 | 1.6 | 0.00 | 0.89 | 0.03 | 94 | 1018.2 |
| 20260508120049 | 7 | 0 | 0.0 | 1.6 | 0.00 | 0.89 | 0.03 | 94 | 1017.9 |
| 20260508114548 | 7 | 0 | 0.0 | 0.0 | 0.00 | 0.91 | 0.03 | 95 | 1017.8 |
| 20260508113043 | 7 | 0 | 0.0 | 1.6 | 0.00 | 0.91 | 0.03 | 95 | 1017.8 |
| 20260508111544 | 6 | 0 | 0.0 | 0.0 | 0.00 | 0.91 | 0.03 | 94 | 1017.6 |
| 20260508110048 | 6 | 0 | 0.0 | 0.0 | 0.00 | 0.91 | 0.03 | 94 | 1017.3 |
| 20260508104558 | 6 | 0 | 0.0 | 1.6 | 0.00 | 0.94 | 0.03 | 94 | 1017.1 |
| 20260508103051 | 6 | 0 | 0.0 | 1.6 | 0.00 | 0.94 | 0.03 | 94 | 1017.0 |
| 20260508101547 | 6 | 0 | 0.0 | 0.0 | 0.00 | 0.94 | 0.03 | 94 | 1016.8 |
| 20260508100051 | 6 | 0 | 0.0 | 1.6 | 0.00 | 0.94 | 0.03 | 94 | 1016.6 |
| 20260508094550 | 6 | 0 | 0.0 | 0.0 | 0.00 | 0.97 | 0.03 | 94 | 1016.1 |
| 20260508093045 | 6 | 0 | 0.0 | 1.6 | 0.00 | 0.97 | 0.03 | 94 | 1016.3 |
| 20260508091558 | 7 | 0 | 0.0 | 1.6 | 0.00 | 0.97 | 0.03 | 94 | 1016.2 |
| 20260508084552 | 7 | 0 | 0.0 | 1.6 | 0.00 | 0.97 | 0.03 | 94 | 1015.9 |
| 20260508083049 | 7 | 0 | 0.0 | 0.0 | 0.00 | 0.97 | 0.03 | 94 | 1015.7 |
| 20260508081552 | 7 | 0 | 0.0 | 0.0 | 0.00 | 0.97 | 0.03 | 94 | 1015.7 |
| 20260508074548 | 7 | 0 | 0.0 | 0.0 | 0.00 | 0.99 | 0.03 | 94 | 1015.6 |
| 20260508073059 | 7 | 0 | 0.0 | 0.0 | 0.00 | 0.99 | 0.03 | 94 | 1015.4 |
| 20260508071559 | 8 | 0 | 0.0 | 0.0 | 0.00 | 0.99 | 0.03 | 94 | 1015.1 |
| 20260508070100 | 8 | 0 | 0.0 | 0.0 | 0.00 | 0.99 | 0.03 | 94 | 1015.1 |
| 20260508064548 | 8 | 0 | 0.0 | 0.0 | 0.00 | 0.99 | 0.03 | 94 | 1015.1 |
| 20260508063053 | 8 | 0 | 0.0 | 0.0 | 0.00 | 0.99 | 0.03 | 93 | 1015.1 |
| 20260508061551 | 8 | 0 | 0.0 | 0.0 | 0.03 | 0.99 | 0.03 | 93 | 1015.1 |
| 20260508060049 | 8 | 0 | 0.0 | 0.0 | 0.03 | 0.99 | 0.03 | 93 | 1015.2 |
| 20260508054549 | 8 | 0 | 0.0 | 0.0 | 0.03 | 1.07 | 0.03 | 93 | 1014.9 |
| 20260508053050 | 9 | 0 | 0.0 | 0.0 | 0.03 | 1.07 | 0.03 | 93 | 1014.9 |
| 20260508051542 | 9 | 0 | 0.0 | 0.0 | 0.00 | 1.04 | 0.00 | 93 | 1015.1 |
| 20260508050049 | 9 | 0 | 0.0 | 0.0 | 0.00 | 1.04 | 0.00 | 93 | 1014.8 |
| 20260508044548 | 10 | 0 | 0.0 | 1.6 | 0.00 | 1.04 | 0.00 | 93 | 1014.7 |
| 20260508043048 | 10 | 0 | 0.0 | 0.0 | 0.00 | 1.04 | 0.00 | 93 | 1014.6 |
| 20260508041547 | 10 | 0 | 0.0 | 0.0 | 0.00 | 1.04 | 0.00 | 93 | 1014.4 |
| 20260508040057 | 10 | 0 | 0.0 | 1.6 | 0.00 | 1.04 | 0.00 | 94 | 1014.4 |
| 20260508034548 | 11 | 0 | 0.0 | 0.0 | 0.00 | 1.14 | 1.04 | 93 | 1014.3 |
| 20260508033109 | 11 | 0 | 0.0 | 1.6 | 0.00 | 1.14 | 1.04 | 93 | 1014.5 |
| 20260508031558 | 11 | 0 | 0.0 | 0.0 | 0.00 | 1.14 | 1.04 | 94 | 1013.9 |
| 20260508030103 | 11 | 0 | 0.0 | 0.0 | 0.00 | 1.14 | 1.04 | 93 | 1014.0 |
| 20260508024613 | 11 | 0 | 0.0 | 1.6 | 0.00 | 1.17 | 1.04 | 93 | 1014.0 |
| 20260508023049 | 11 | 0 | 0.0 | 1.6 | 0.00 | 1.17 | 1.04 | 93 | 1013.7 |
| 20260508021552 | 11 | 0 | 0.0 | 0.0 | 0.00 | 1.17 | 1.04 | 92 | 1013.6 |
| 20260508020105 | 12 | 0 | 0.0 | 0.0 | 0.00 | 1.17 | 1.04 | 92 | 1013.4 |
| 20260508014606 | 12 | 0 | 0.0 | 1.6 | 0.00 | 1.19 | 1.04 | 92 | 1012.9 |
| 20260508013101 | 12 | 0 | 0.0 | 1.6 | 0.00 | 1.19 | 1.04 | 91 | 1012.7 |
| 20260508011554 | 12 | 0 | 0.0 | 1.6 | 0.00 | 1.19 | 1.04 | 91 | 1012.3 |
| 20260508010104 | 13 | 0 | 0.0 | 0.0 | 0.00 | 1.19 | 1.04 | 91 | 1012.0 |
| 20260508004549 | 13 | 0 | 0.0 | 1.6 | 0.00 | 1.19 | 1.04 | 91 | 1012.1 |
| 20260508003053 | 13 | 0 | 0.0 | 1.6 | 0.00 | 1.19 | 1.04 | 91 | 1012.1 |
| 20260508001555 | 13 | 0 | 0.0 | 0.0 | 0.00 | 1.19 | 1.04 | 90 | 1012.1 |
| 20260508000055 | 13 | 0 | 0.0 | 1.6 | 0.00 | 1.19 | 1.04 | 90 | 1012.1 |
| 20260507234549 | 13 | 0 | 0.0 | 3.2 | 0.00 | 1.19 | 1.04 | 89 | 1011.9 |
| 20260507233051 | 13 | 0 | 0.0 | 1.6 | 0.00 | 1.19 | 1.04 | 89 | 1011.5 |
| 20260507231552 | 13 | 0 | 0.0 | 4.8 | 0.00 | 1.19 | 1.04 | 89 | 1011.4 |
| 20260507230055 | 13 | 0 | 0.0 | 6.4 | 0.00 | 1.19 | 1.04 | 90 | 1011.1 |
| 20260507224552 | 13 | 0 | 0.0 | 4.8 | 0.00 | 1.19 | 1.04 | 90 | 1010.9 |
| 20260507223043 | 13 | 0 | 0.0 | 4.8 | 0.00 | 1.19 | 1.04 | 90 | 1010.8 |
| 20260507221550 | 13 | 0 | 1.6 | 8.0 | 0.00 | 1.19 | 1.04 | 89 | 1010.9 |
| 20260507220049 | 13 | 61 | 1.6 | 12.9 | 0.00 | 1.19 | 1.04 | 90 | 1010.5 |
| 20260507214550 | 13 | 71 | 0.0 | 3.2 | 0.00 | 1.19 | 1.04 | 92 | 1010.5 |
| 20260507213055 | 13 | 64 | 0.0 | 12.9 | 0.00 | 1.19 | 1.04 | 91 | 1010.6 |
| 20260507211553 | 13 | 133 | 0.0 | 11.3 | 0.00 | 1.19 | 1.04 | 91 | 1010.4 |
| 20260507210056 | 14 | 0 | 0.0 | 3.2 | 0.28 | 1.19 | 1.04 | 91 | 1010.4 |
| 20260507204554 | 13 | 9 | 0.0 | 3.2 | 0.43 | 1.19 | 1.04 | 91 | 1010.6 |
| 20260507203050 | 14 | 0 | 0.0 | 4.8 | 0.43 | 1.19 | 1.04 | 93 | 1010.1 |
| 20260507201553 | 13 | 30 | 0.0 | 3.2 | 0.43 | 1.19 | 1.04 | 91 | 1010.5 |
| 20260507200050 | 13 | 30 | 0.0 | 6.4 | 0.15 | 0.91 | 0.76 | 88 | 1010.6 |
| 20260507194550 | 14 | 344 | 0.0 | 4.8 | 0.00 | 0.76 | 0.61 | 87 | 1010.2 |
| 20260507193055 | 15 | 0 | 0.0 | 11.3 | 0.00 | 0.76 | 0.61 | 87 | 1010.1 |
| 20260507191551 | 15 | 344 | 0.0 | 11.3 | 0.00 | 0.76 | 0.61 | 88 | 1009.8 |
| 20260507190044 | 15 | 5 | 0.0 | 9.7 | 0.00 | 0.76 | 0.61 | 88 | 1010.0 |
| 20260507184549 | 15 | 0 | 1.6 | 11.3 | 0.00 | 0.76 | 0.61 | 89 | 1010.1 |
| 20260507183104 | 15 | 0 | 0.0 | 6.4 | 0.00 | 0.76 | 0.61 | 89 | 1010.4 |
| 20260507181555 | 15 | 0 | 0.0 | 17.7 | 0.00 | 0.76 | 0.61 | 89 | 1010.3 |
| 20260507180054 | 16 | 57 | 0.0 | 4.8 | 0.00 | 0.76 | 0.61 | 90 | 1009.8 |
| 20260507174545 | 16 | 0 | 0.0 | 3.2 | 0.00 | 0.76 | 0.61 | 89 | 1010.2 |
| 20260507173056 | 16 | 0 | 0.0 | 4.8 | 0.00 | 0.76 | 0.61 | 88 | 1010.4 |
| 20260507171553 | 17 | 0 | 0.0 | 3.2 | 0.00 | 0.76 | 0.61 | 89 | 1010.3 |
| 20260507170053 | 17 | 0 | 0.0 | 6.4 | 0.00 | 0.76 | 0.61 | 88 | 1010.3 |
| 20260507164550 | 17 | 0 | 0.0 | 12.9 | 0.00 | 0.76 | 0.61 | 87 | 1010.0 |
| 20260507163057 | 18 | 324 | 1.6 | 3.2 | 0.00 | 0.76 | 0.61 | 87 | 1009.5 |
| 20260507161557 | 20 | 147 | 0.0 | 1.6 | 0.00 | 0.76 | 0.61 | 92 | 1009.5 |
| 20260507160053 | 18 | 0 | 0.0 | 1.6 | 0.00 | 0.76 | 0.61 | 94 | 1009.9 |
| 20260507154551 | 17 | 0 | 0.0 | 1.6 | 0.03 | 0.76 | 0.61 | 94 | 1010.3 |
| 20260507153058 | 17 | 0 | 0.0 | 4.8 | 0.03 | 0.76 | 0.61 | 94 | 1010.8 |
| 20260507151548 | 17 | 0 | 0.0 | 1.6 | 0.05 | 0.76 | 0.61 | 94 | 1010.7 |
| 20260507150048 | 17 | 0 | 0.0 | 1.6 | 0.05 | 0.76 | 0.61 | 94 | 1011.1 |
| 20260507144550 | 17 | 0 | 0.0 | 3.2 | 0.05 | 0.74 | 0.58 | 94 | 1010.3 |
| 20260507143059 | 17 | 0 | 0.0 | 1.6 | 0.08 | 0.74 | 0.58 | 94 | 1010.4 |
| 20260507141550 | 17 | 0 | 0.0 | 4.8 | 0.10 | 0.71 | 0.56 | 94 | 1010.4 |
| 20260507140044 | 17 | 0 | 0.0 | 3.2 | 0.18 | 0.71 | 0.56 | 94 | 1010.6 |
| 20260507134549 | 17 | 0 | 0.0 | 3.2 | 0.28 | 0.69 | 0.53 | 94 | 1009.8 |
| 20260507133050 | 17 | 147 | 0.0 | 3.2 | 0.28 | 0.66 | 0.51 | 94 | 1009.8 |
| 20260507131550 | 17 | 0 | 0.0 | 3.2 | 0.25 | 0.61 | 0.46 | 94 | 1010.4 |
| 20260507124555 | 17 | 0 | 0.0 | 1.6 | 0.08 | 0.41 | 0.25 | 94 | 1011.6 |
| 20260507123042 | 17 | 0 | 0.0 | 3.2 | 0.05 | 0.38 | 0.23 | 94 | 1011.5 |